This is the latest recevied weather packets stored in our database for station/object IU1FIL-23. If no packets are shown the sender has not sent any weather packets the latest 10 day(s).
| Time | Temp. | Humidity | Pressure | Rain* | Wind** | Luminosity | Snow |
|---|---|---|---|---|---|---|---|
| 1777844589 | 8.33° C | 89% | 1020.3 hPa | - | - | - | - |
| 1777843985 | 8.33° C | 87% | 1020.3 hPa | - | - | - | - |
| 1777843381 | 8.33° C | 85% | 1020.3 hPa | - | - | - | - |
| 1777842777 | 8.33° C | 83% | 1020.3 hPa | - | - | - | - |
| 1777842172 | 8.33° C | 81% | 1020.5 hPa | - | - | - | - |
| 1777841568 | 8.33° C | 78% | 1020.4 hPa | - | - | - | - |
| 1777840964 | 8.89° C | 77% | 1020.4 hPa | - | - | - | - |
| 1777840360 | 8.89° C | 76% | 1020.5 hPa | - | - | - | - |
| 1777839756 | 8.89° C | 78% | 1020.6 hPa | - | - | - | - |
| 1777839152 | 8.89° C | 73% | 1020.5 hPa | - | - | - | - |
| 1777838548 | 8.89° C | 73% | 1020.3 hPa | - | - | - | - |
| 1777837944 | 8.89° C | 71% | 1020.3 hPa | - | - | - | - |
| 1777837339 | 8.89° C | 69% | 1020.2 hPa | - | - | - | - |
| 1777836735 | 8.89° C | 67% | 1020.1 hPa | - | - | - | - |
| 1777836131 | 8.89° C | 65% | 1020 hPa | - | - | - | - |
| 1777835514 | 8.89° C | 62% | 1020 hPa | - | - | - | - |
| 1777834910 | 8.89° C | 62% | 1019.9 hPa | - | - | - | - |
| 1777834306 | 8.89° C | 60% | 1019.9 hPa | - | - | - | - |
| 1777833702 | 9.44° C | 59% | 1019.9 hPa | - | - | - | - |
| 1777833098 | 9.44° C | 58% | 1019.9 hPa | - | - | - | - |
| 1777832493 | 10° C | 56% | 1019.8 hPa | - | - | - | - |
| 1777831889 | 10° C | 55% | 1019.9 hPa | - | - | - | - |
| 1777831285 | 10.56° C | 54% | 1019.8 hPa | - | - | - | - |
| 1777830681 | 10.56° C | 52% | 1019.8 hPa | - | - | - | - |
| 1777830077 | 11.11° C | 51% | 1019.9 hPa | - | - | - | - |
* Rain since midnight (hover to see other rain measurements)
** Current wind speed in m/s (hover to see current wind gust speed)